CAPE
747 137 171 329 172 170 615 799 493 546 642 623 812 715 462 244 531 1011 1059 770 746 393
309 85 83 199 534 686 710 682 573 417 535 586 713 475 97 119 174 300 727 1071 1145 655
351 61 80 201 269 360 529 426 401 457 411 425 158 35 30 113 112 116 468 498 563 604
310 66 19 251 191 167 373 315 259 195 229 180 22 22 20 108 168 215 455 503 317 319
391 171 132 141 189 130 229 234 210 110 84 60 53 19 16 68 109 145 251 398 266 195
364 385 305 175 291 330 269 121 130 174 134 51 38 159 167 76 60 48 145 240 271 311
413 371 334 362 444 469 418 224 228 160 143 43 16 71 106 49 21 24 34 19 92 178
294 209 393 316 262 274 92 57 100 179 124 158 128 91 150 39 32 16 12 3 9 35
294 261 282 350 105 68 134 166 175 184 187 222 81 6 30 65 66 9 0 0 3 60
263 235 278 315 332 368 333 306 271 239 254 199 0 29 74 8 18 0 0 0 14 56
386 447 449 411 330 285 265 250 212 149 26 0 4 11 43 93 52 10 13 13 50 87
424 208 130 51 30 10 5 0 2 7 0 0 0 2 15 13 15 13 17 10 42 61
262 59 140 152 147 123 66 8 0 0 0 0 0 4 6 4 7 5 11 33 12 32
136 120 110 102 58 41 80 35 4 3 4 20 2 1 1 13 21 10 14 12 10 11
CIN
0 -10 -1 0 -16 -14 0 0 0 0 0 0 0 0 -8 -53 -14 -3 -2 0 -3 0
-1 -8 -8 -1 0 0 0 0 0 0 0 0 0 0 -47 -63 -44 -27 -10 -4 0 0
-2 -18 -3 -2 0 0 0 0 -1 0 -1 0 -2 -31 -34 -41 -56 -47 -26 -2 0 -1
0 -10 -17 -1 0 -4 0 0 0 0 0 -1 -11 -2 0 -39 -40 -37 -14 -2 0 0
0 -3 -8 -3 0 -1 0 0 0 0 -4 -3 -16 -31 0 -32 -18 -15 -11 -5 0 0
-3 -1 0 0 0 0 0 -1 0 -2 -6 -23 -38 -7 -8 -30 -37 -32 -18 -18 -2 0
0 -1 -3 -4 0 0 0 0 -1 -9 -7 -22 -6 -25 -21 -13 0 0 -1 -2 -55 -36
-11 -8 0 0 0 0 0 -3 -1 -1 -17 -12 -15 -13 -13 0 0 0 -2 -2 -5 -11
-13 0 0 0 -3 -12 -1 0 -2 0 0 -1 -7 -16 -12 -17 -9 -34 0 0 0 -10
-9 -1 0 0 0 0 0 0 0 0 0 0 0 -21 -12 -4 -13 0 0 0 -19 -3
0 0 0 0 0 0 0 0 0 0 0 0 -12 -12 -7 -6 -2 -13 -9 -12 -2 0
-1 -1 -4 -13 -10 -17 0 0 0 0 0 0 0 -2 -6 -9 -3 -1 -3 -1 0 0
0 -23 -6 -8 -8 -1 -2 -12 0 0 0 0 0 -4 -3 -8 -6 -3 0 -1 -1 0
-4 -10 -13 -14 -4 -11 -1 -1 -5 -8 -3 -9 -3 -5 -4 -3 -1 -1 0 -1 -1 -1
Wind_Speed
4 7 9 9 9 8 9 12 13 16 21 24 24 23 28 29 26 21 23 22 17 17
8 nan nan 6 8 8 9 13 16 18 25 25 24 28 nan 28 23 21 24 22 16 16
12 nan nan 8 16 11 9 14 17 22 23 25 27 nan nan 25 20 22 23 19 21 19
25 nan nan 10 9 13 10 14 15 19 25 24 nan nan nan 24 25 26 23 23 23 20
21 20 16 3 10 8 12 14 19 20 nan nan nan nan nan nan 29 26 25 19 23 23
20 18 15 8 4 7 9 11 18 22 28 nan nan 28 33 nan nan nan 34 24 27 26
22 16 13 14 12 9 10 9 10 18 22 nan nan nan 29 nan nan nan nan nan nan 34
21 22 21 17 17 17 nan nan 14 19 16 16 17 nan 21 nan nan nan nan nan nan nan
28 25 22 22 20 nan 19 19 14 13 20 21 nan nan nan nan nan nan nan nan nan nan
24 25 24 21 22 21 20 20 21 21 18 22 nan nan nan nan nan nan nan nan nan nan
25 25 25 26 27 26 25 26 25 28 nan nan nan nan nan nan nan nan nan nan nan nan
32 31 30 nan nan nan nan nan nan nan nan nan nan nan nan nan nan nan nan nan nan nan
31 nan 33 31 31 33 nan nan nan nan nan nan nan nan nan nan nan nan nan nan nan nan
30 29 33 35 nan nan nan nan nan nan nan nan nan nan nan nan nan nan nan nan nan nan
Wind_Direction
253 231 201 224 213 189 180 200 211 207 213 214 216 218 224 220 225 237 240 257 239 242
277 nan nan 203 191 186 195 201 210 217 221 219 220 222 nan 226 224 237 256 259 250 250
357 nan nan 226 206 230 220 219 220 220 222 224 217 nan nan 225 231 231 245 259 266 254
6 nan nan 239 212 203 234 222 223 230 228 228 nan nan nan 229 245 252 253 251 261 258
9 5 13 272 214 234 234 235 240 241 nan nan nan nan nan nan 237 241 246 242 247 242
9 358 9 8 321 285 273 251 237 234 237 nan nan 237 238 nan nan nan 243 229 232 243
340 343 339 333 338 303 308 293 269 235 252 nan nan nan 238 nan nan nan nan nan nan 249
324 327 321 318 302 294 nan nan 265 268 256 252 245 nan 244 nan nan nan nan nan nan nan
314 316 306 309 313 nan 290 282 278 278 268 260 nan nan nan nan nan nan nan nan nan nan
301 306 308 293 298 297 289 281 272 264 261 258 nan nan nan nan nan nan nan nan nan nan
293 291 294 289 282 285 284 276 270 264 nan nan nan nan nan nan nan nan nan nan nan nan
275 279 282 nan nan nan nan nan nan nan nan nan nan nan nan nan nan nan nan nan nan nan
273 nan 283 279 269 269 nan nan nan nan nan nan nan nan nan nan nan nan nan nan nan nan
270 268 272 266 nan nan nan nan nan nan nan nan nan nan nan nan nan nan nan nan nan nan